Time,TemperatureF,DewpointF,PressureIn,WindDirection,WindDirectionDegrees,WindSpeedMPH,WindSpeedGustMPH,Humidity,HourlyPrecipIn,Conditions,Clouds,dailyrainin,SoftwareType,DateUTC
2013-03-10 00:02:00,63.5,41.8,29.67,South,180,13.0,-999.0,45,-99.99,,,0.00,Acu-Link.com,2013-03-10 06:02:00,
2013-03-10 00:17:00,63.5,42.9,29.69,SSE,157,4.7,-999.0,47,-99.99,,,0.00,Acu-Link.com,2013-03-10 06:17:00,
2013-03-10 00:33:00,63.5,43.5,29.68,ENE,67,11.4,-999.0,48,-99.99,,,0.00,Acu-Link.com,2013-03-10 06:33:00,
2013-03-10 00:48:00,63.5,44.0,29.69,SSW,202,7.3,-999.0,49,-99.99,,,0.00,Acu-Link.com,2013-03-10 06:48:00,
2013-03-10 01:03:00,63.5,44.5,29.69,South,180,7.3,-999.0,50,-99.99,,,0.00,Acu-Link.com,2013-03-10 07:03:00,
2013-03-10 01:18:00,63.7,45.2,29.68,SSW,202,6.3,-999.0,51,-99.99,,,0.00,Acu-Link.com,2013-03-10 07:18:00,
2013-03-10 01:33:00,63.3,45.9,29.68,SSE,157,13.5,-999.0,53,-99.99,,,0.00,Acu-Link.com,2013-03-10 07:33:00,
2013-03-10 01:48:00,62.4,46.5,29.66,SSE,157,12.5,-999.0,56,-99.99,,,0.00,Acu-Link.com,2013-03-10 07:48:00,
2013-03-10 03:03:00,62.4,47.0,29.66,South,180,7.3,-999.0,57,-99.99,,,0.00,Acu-Link.com,2013-03-10 08:03:00,
2013-03-10 03:18:00,61.9,47.0,29.65,South,180,7.8,-999.0,58,-99.99,,,0.00,Acu-Link.com,2013-03-10 08:18:00,
2013-03-10 03:33:00,61.9,47.4,29.65,SE,135,6.3,-999.0,59,-99.99,,,0.00,Acu-Link.com,2013-03-10 08:33:00,
2013-03-10 03:49:00,61.7,47.7,29.65,South,180,6.8,-999.0,60,-99.99,,,0.00,Acu-Link.com,2013-03-10 08:49:00,
2013-03-10 04:04:00,61.5,48.8,29.64,SSW,202,6.3,-999.0,63,-99.99,,,0.00,Acu-Link.com,2013-03-10 09:04:00,
2013-03-10 04:19:00,61.0,49.6,29.63,SE,135,4.2,-999.0,66,-99.99,,,0.00,Acu-Link.com,2013-03-10 09:19:00,
2013-03-10 04:34:00,61.0,49.6,29.61,South,180,10.9,-999.0,66,-99.99,,,0.00,Acu-Link.com,2013-03-10 09:34:00,
2013-03-10 04:49:00,61.0,50.0,29.62,South,180,13.0,-999.0,67,-99.99,,,0.00,Acu-Link.com,2013-03-10 09:49:00,
2013-03-10 05:04:00,60.3,50.1,29.61,SSE,157,9.9,-999.0,69,-99.99,,,0.00,Acu-Link.com,2013-03-10 10:04:00,
2013-03-10 05:19:00,60.4,50.6,29.62,South,180,9.4,-999.0,70,-99.99,,,0.00,Acu-Link.com,2013-03-10 10:19:00,
2013-03-10 05:34:00,60.3,52.0,29.62,South,180,9.4,-999.0,74,-99.99,,,0.00,Acu-Link.com,2013-03-10 10:34:00,
2013-03-10 05:50:00,59.9,52.3,29.62,SSE,157,8.9,-999.0,76,-99.99,,,0.00,Acu-Link.com,2013-03-10 10:50:00,
2013-03-10 06:05:00,60.1,53.2,29.63,South,180,9.4,-999.0,78,-99.99,,,0.00,Acu-Link.com,2013-03-10 11:05:00,
2013-03-10 06:20:00,60.1,53.6,29.63,SSE,157,8.3,-999.0,79,-99.99,,,0.00,Acu-Link.com,2013-03-10 11:20:00,
2013-03-10 06:35:00,59.9,54.1,29.64,SSE,157,7.8,-999.0,81,-99.99,,,0.00,Acu-Link.com,2013-03-10 11:35:00,
2013-03-10 06:50:00,59.9,54.4,29.63,ESE,112,9.4,-999.0,82,-99.99,,,0.00,Acu-Link.com,2013-03-10 11:50:00,
2013-03-10 07:05:00,59.4,54.6,29.62,SSE,157,8.3,-999.0,84,-99.99,,,0.00,Acu-Link.com,2013-03-10 12:05:00,
2013-03-10 07:20:00,59.4,54.9,29.62,SSE,157,10.4,-999.0,85,-99.99,,,0.00,Acu-Link.com,2013-03-10 12:20:00,
2013-03-10 07:36:00,59.2,55.0,29.59,ESE,112,9.9,-999.0,86,-99.99,,,0.00,Acu-Link.com,2013-03-10 12:36:00,
2013-03-10 07:51:00,59.0,54.5,29.60,South,180,6.3,-999.0,85,-99.99,,,0.00,Acu-Link.com,2013-03-10 12:51:00,
2013-03-10 08:06:00,58.8,54.0,29.60,South,180,7.8,-999.0,84,-99.99,,,0.00,Acu-Link.com,2013-03-10 13:06:00,
2013-03-10 08:22:00,59.0,53.8,29.60,SSE,157,7.8,-999.0,83,-99.99,,,0.00,Acu-Link.com,2013-03-10 13:22:00,
2013-03-10 08:37:00,59.2,54.0,29.62,South,180,6.3,-999.0,83,-99.99,,,0.00,Acu-Link.com,2013-03-10 13:37:00,
2013-03-10 08:52:00,60.4,54.2,29.59,SSE,157,13.0,-999.0,80,-99.99,,,0.00,Acu-Link.com,2013-03-10 13:52:00,
2013-03-10 09:07:00,60.4,54.2,29.61,SSE,157,17.1,-999.0,80,-99.99,,,0.00,Acu-Link.com,2013-03-10 14:07:00,
2013-03-10 09:22:00,61.2,55.0,29.61,South,180,11.9,-999.0,80,-99.99,,,0.00,Acu-Link.com,2013-03-10 14:22:00,
2013-03-10 09:37:00,61.9,55.3,29.60,SSE,157,11.9,-999.0,79,-99.99,,,0.00,Acu-Link.com,2013-03-10 14:37:00,
2013-03-10 09:52:00,61.7,55.8,29.60,South,180,13.0,-999.0,81,-99.99,,,0.00,Acu-Link.com,2013-03-10 14:52:00,
2013-03-10 10:07:00,61.5,56.0,29.60,SSW,202,18.6,-999.0,82,-99.99,,,0.00,Acu-Link.com,2013-03-10 15:07:00,
2013-03-10 10:22:00,61.7,56.8,29.59,SSE,157,13.5,-999.0,84,-99.99,,,0.00,Acu-Link.com,2013-03-10 15:22:00,
2013-03-10 10:37:00,61.9,56.7,29.55,SSE,157,14.5,-999.0,83,-99.99,,,0.00,Acu-Link.com,2013-03-10 15:37:00,
2013-03-10 10:52:00,61.9,56.3,29.55,SE,135,13.5,-999.0,82,-99.99,,,0.00,Acu-Link.com,2013-03-10 15:52:00,
2013-03-10 11:07:00,62.8,57.2,29.55,SSE,157,16.6,-999.0,82,-99.99,,,0.00,Acu-Link.com,2013-03-10 16:07:00,
2013-03-10 11:22:00,65.5,58.1,29.54,South,180,9.9,-999.0,77,-99.99,,,0.00,Acu-Link.com,2013-03-10 16:22:00,
2013-03-10 11:38:00,67.1,58.1,29.54,South,180,17.1,-999.0,73,-99.99,,,0.00,Acu-Link.com,2013-03-10 16:38:00,
2013-03-10 11:53:00,65.7,58.3,29.56,SSW,202,11.9,-999.0,77,-99.99,,,0.00,Acu-Link.com,2013-03-10 16:53:00,
2013-03-10 12:08:00,64.8,58.5,29.57,SSE,157,17.6,-999.0,80,-99.99,,,0.00,Acu-Link.com,2013-03-10 17:08:00,
2013-03-10 12:23:00,64.9,58.9,29.54,ESE,112,10.4,-999.0,81,-99.99,,,0.00,Acu-Link.com,2013-03-10 17:23:00,
2013-03-10 12:38:00,64.9,59.3,29.54,South,180,13.5,-999.0,82,-99.99,,,0.00,Acu-Link.com,2013-03-10 17:38:00,
2013-03-10 12:53:00,64.9,59.3,29.52,South,180,14.5,-999.0,82,-99.99,,,0.00,Acu-Link.com,2013-03-10 17:53:00,
2013-03-10 13:08:00,64.9,59.6,29.52,South,180,12.5,-999.0,83,-99.99,,,0.00,Acu-Link.com,2013-03-10 18:08:00,
2013-03-10 13:23:00,62.2,61.6,29.53,South,180,14.5,-999.0,98,-99.99,,,0.01,Acu-Link.com,2013-03-10 18:23:00,
2013-03-10 13:39:00,59.9,59.3,29.51,South,180,17.1,-999.0,98,-99.99,,,0.02,Acu-Link.com,2013-03-10 18:39:00,
2013-03-10 13:54:00,59.9,59.3,29.49,South,180,10.9,-999.0,98,-99.99,,,0.03,Acu-Link.com,2013-03-10 18:54:00,
2013-03-10 14:09:00,59.7,59.1,29.49,SSW,202,9.4,-999.0,98,-99.99,,,0.03,Acu-Link.com,2013-03-10 19:09:00,
2013-03-10 14:24:00,59.5,58.9,29.48,SSE,157,9.4,-999.0,98,-99.99,,,0.03,Acu-Link.com,2013-03-10 19:24:00,
2013-03-10 14:39:00,59.4,58.8,29.51,West,270,5.3,-999.0,98,-99.99,,,0.04,Acu-Link.com,2013-03-10 19:39:00,
2013-03-10 14:55:00,53.6,53.0,29.54,WNW,292,3.7,-999.0,98,-99.99,,,0.06,Acu-Link.com,2013-03-10 19:55:00,
2013-03-10 15:10:00,52.5,52.0,29.55,West,270,1.7,-999.0,98,-99.99,,,0.21,Acu-Link.com,2013-03-10 20:10:00,
2013-03-10 15:25:00,52.2,51.7,29.55,North,0,2.7,-999.0,98,-99.99,,,0.26,Acu-Link.com,2013-03-10 20:25:00,
2013-03-10 15:40:00,52.2,51.7,29.55,WSW,247,1.7,-999.0,98,-99.99,,,0.28,Acu-Link.com,2013-03-10 20:40:00,
2013-03-10 15:55:00,52.0,51.5,29.55,WNW,292,2.2,-999.0,98,-99.99,,,0.30,Acu-Link.com,2013-03-10 20:55:00,
2013-03-10 16:10:00,52.0,51.5,29.57,North,0,3.7,-999.0,98,-99.99,,,0.42,Acu-Link.com,2013-03-10 21:10:00,
2013-03-10 16:26:00,52.0,51.5,29.56,West,270,0.0,-999.0,98,-99.99,,,0.45,Acu-Link.com,2013-03-10 21:26:00,
2013-03-10 16:56:00,52.2,51.7,29.56,SSE,157,0.0,-999.0,98,-99.99,,,0.52,Acu-Link.com,2013-03-10 21:56:00,
2013-03-10 17:12:00,52.0,51.5,29.55,ESE,112,2.7,-999.0,98,-99.99,,,0.56,Acu-Link.com,2013-03-10 22:12:00,
2013-03-10 17:42:00,52.2,51.7,29.53,West,270,0.0,-999.0,98,-99.99,,,0.61,Acu-Link.com,2013-03-10 22:42:00,
2013-03-10 17:58:00,52.3,51.8,29.51,SE,135,2.2,-999.0,98,-99.99,,,0.61,Acu-Link.com,2013-03-10 22:58:00,
2013-03-10 18:13:00,52.3,51.8,29.53,ESE,112,2.7,-999.0,98,-99.99,,,0.64,Acu-Link.com,2013-03-10 23:13:00,
2013-03-10 18:28:00,52.2,51.7,29.55,SSE,157,3.7,-999.0,98,-99.99,,,0.65,Acu-Link.com,2013-03-10 23:28:00,
2013-03-10 18:43:00,52.2,51.7,29.55,SSE,157,2.7,-999.0,98,-99.99,,,0.66,Acu-Link.com,2013-03-10 23:43:00,
2013-03-10 18:58:00,52.0,51.5,29.56,SE,135,2.7,-999.0,98,-99.99,,,0.67,Acu-Link.com,2013-03-10 23:58:00,
2013-03-10 19:14:00,52.0,51.5,29.55,South,180,2.7,-999.0,98,-99.99,,,0.67,Acu-Link.com,2013-03-11 00:14:00,
2013-03-10 19:29:00,52.0,51.5,29.55,SSW,202,2.7,-999.0,98,-99.99,,,0.70,Acu-Link.com,2013-03-11 00:29:00,
2013-03-10 19:44:00,52.0,51.5,29.55,SSE,157,2.2,-999.0,98,-99.99,,,0.71,Acu-Link.com,2013-03-11 00:44:00,
2013-03-10 19:59:00,52.0,51.5,29.55,South,180,2.7,-999.0,98,-99.99,,,0.72,Acu-Link.com,2013-03-11 00:59:00,
2013-03-10 20:15:00,52.0,51.5,29.57,SW,225,3.7,-999.0,98,-99.99,,,0.72,Acu-Link.com,2013-03-11 01:15:00,
2013-03-10 20:30:00,52.0,51.5,29.58,South,180,2.2,-999.0,98,-99.99,,,0.72,Acu-Link.com,2013-03-11 01:30:00,
2013-03-10 20:45:00,52.2,51.7,29.56,SSW,202,3.2,-999.0,98,-99.99,,,0.72,Acu-Link.com,2013-03-11 01:45:00,
2013-03-10 21:01:00,52.3,51.8,29.57,WSW,247,2.2,-999.0,98,-99.99,,,0.72,Acu-Link.com,2013-03-11 02:01:00,
2013-03-10 21:31:00,52.5,52.0,29.57,SSE,157,3.2,-999.0,98,-99.99,,,0.72,Acu-Link.com,2013-03-11 02:31:00,
2013-03-10 21:46:00,52.2,51.7,29.58,South,180,3.2,-999.0,98,-99.99,,,0.72,Acu-Link.com,2013-03-11 02:46:00,
2013-03-10 22:02:00,52.2,51.7,29.58,SW,225,1.7,-999.0,98,-99.99,,,0.72,Acu-Link.com,2013-03-11 03:02:00,
2013-03-10 22:17:00,52.2,51.7,29.59,SW,225,2.7,-999.0,98,-99.99,,,0.72,Acu-Link.com,2013-03-11 03:17:00,
2013-03-10 22:32:00,52.5,52.0,29.59,West,270,1.7,-999.0,98,-99.99,,,0.72,Acu-Link.com,2013-03-11 03:32:00,
2013-03-10 22:47:00,52.3,51.8,29.57,SSW,202,0.0,-999.0,98,-99.99,,,0.72,Acu-Link.com,2013-03-11 03:47:00,
2013-03-10 23:02:00,52.3,51.8,29.57,WSW,247,0.0,-999.0,98,-99.99,,,0.72,Acu-Link.com,2013-03-11 04:02:00,
2013-03-10 23:18:00,52.3,51.8,29.57,WSW,247,0.0,-999.0,98,-99.99,,,0.72,Acu-Link.com,2013-03-11 04:18:00,
2013-03-10 23:33:00,52.0,51.5,29.59,West,270,2.2,-999.0,98,-99.99,,,0.72,Acu-Link.com,2013-03-11 04:33:00,
2013-03-10 23:48:00,48.2,47.7,29.60,West,270,2.2,-999.0,98,-99.99,,,0.72,Acu-Link.com,2013-03-11 04:48:00,